Location: Flavigny
(47.5120°N, 4.5310°E)
Time: 09:09:50
(UTC+00:00)

Daily predictions for brighter satellites

Satellite Brightness Start Highest point End
(mag) Time Altitude Azimuth Time Altitude Azimuth Time Altitude Azimuth
USA 215 4.2 19:41:05 10° NE 19:47:23 52° NNW 19:53:40 10° W
CZ-4C R/B 3.2 19:40:13 10° NW 19:47:27 75° SW 19:55:50 10° SSE
Cosmos 1782 2.9 19:52:07 10° S 19:56:05 85° W 20:00:05 10° N
USA 308 3.2 19:51:54 10° WNW 19:56:09 59° SW 20:00:22 10° SE
Cosmos 1500 3.1 19:57:49 10° N 20:01:35 81° E 20:05:18 10° SSE
Cosmos 1437 2.7 20:01:25 10° SSW 20:04:14 70° WNW 20:07:04 10° N
Meteor 1-5 Rocket 4.1 20:01:34 10° N 20:06:55 67° ENE 20:12:10 10° SSE
SJ-6B 4.5 20:04:39 10° SSW 20:08:14 33° W 20:11:57 10° NNW
ERS-2 4.2 20:06:25 10° N 20:09:40 31° WNW 20:12:54 10° SW
Terra 3.5 20:12:35 10° ESE 20:15:56 20° ENE 20:19:19 10° NNE
MetOp-B 4.2 20:11:44 10° SSE 20:17:02 67° ENE 20:22:22 10° N
Meteor 1-11 Rocket 4.2 20:12:32 10° N 20:18:19 49° ENE 20:23:30 12° SE
Cosmos 1515 Rocket 3.5 20:15:48 10° S 20:20:11 76° E 20:24:34 10° NNE
Cosmos 1340 Rocket 4.4 20:18:57 10° NNE 20:22:11 22° ENE 20:24:45 13° ESE
Cosmos 1633 Rocket 4.3 20:18:25 10° NNW 20:22:34 41° W 20:26:42 10° SSW
Cosmos 2228 Rocket 3.8 20:19:04 11° SSE 20:23:00 35° E 20:27:06 10° NNE
Cosmos 2315 Rocket 4.4 20:17:31 10° SSW 20:23:52 69° W 20:30:16 10° N
Tianhe-1 2.5 20:21:28 10° SW 20:23:54 21° SSE 20:25:05 17° SE
Cosmos 1869 Rocket 4.3 20:21:51 10° N 20:25:54 37° ENE 20:29:02 15° SE
Resurs 01 Rocket 1.9 20:22:13 10° S 20:26:39 71° WSW 20:31:06 10° NNW
BREEZE M DEB (TANK) 1.7 20:24:49 10° WNW 20:29:34 87° NNE 20:31:13 17° ESE
SWARM C 4.5 20:26:42 10° N 20:30:02 89° WNW 20:33:17 10° S
SWARM A 4.2 20:26:49 10° N 20:30:09 86° W 20:33:28 10° S
Cosmos 2082 Rocket 2.2 20:25:03 10° NNW 20:30:43 87° WSW 20:35:40 14° SSE
SPOT 1/Viking Rocket 3.6 20:27:48 12° SSE 20:32:36 73° ENE 20:37:46 10° N
ERS-1 Rocket 3.7 20:29:27 15° SE 20:33:14 38° ENE 20:37:52 10° N
USA 305 4.2 20:29:48 10° WNW 20:33:33 30° SW 20:36:40 13° SSE
Cosmos 1943 Rocket 3.1 20:35:05 13° SSE 20:39:03 29° ESE 20:43:47 10° NE
Spot 2 Rocket 3.6 20:35:19 15° SSE 20:39:25 63° ENE 20:44:25 10° N
Cosmos 1937 Rocket 4.4 20:36:59 16° SSE 20:40:12 29° E 20:44:36 10° NE
OBJECT-B 4.0 20:40:41 10° WSW 20:41:25 11° W 20:42:09 10° WNW
ERBS 3.1 20:39:27 10° NW 20:42:38 44° NNE 20:44:57 17° E
Meteor 1-10 Rocket 4.2 20:37:05 10° S 20:42:41 81° E 20:48:25 10° NNE
CARTOSAT-1 3.7 20:42:25 18° SSE 20:45:28 59° ENE 20:49:43 10° N
Landsat 7 4.2 20:40:57 10° S 20:45:39 61° W 20:50:23 10° NNW
SPOT 5 3.5 20:42:26 17° SE 20:46:11 49° ENE 20:51:20 10° N
Cosmos 1536 3.1 20:42:22 10° N 20:46:19 51° ENE 20:48:44 21° SE
CZ-2C R/B 3.7 20:42:53 10° NNE 20:47:26 88° E 20:52:02 10° SSW
SPOT 3 Rocket 4.2 20:44:02 10° S 20:49:04 53° W 20:54:07 10° NNW
Cosmos 1271 Rocket 2.9 20:45:36 10° SSW 20:49:35 79° W 20:53:37 10° N
Cosmos 1933 Rocket 4.3 20:49:34 10° NNW 20:53:47 50° W 20:57:58 10° SSW
Cosmos 1680 Rocket 3.5 20:48:27 10° NNW 20:53:49 79° ENE 20:57:31 20° SSE
ISS -3.9 20:51:27 10° WSW 20:54:49 73° SSE 20:58:11 10° ENE
Cosmos 2278 Rocket 3.2 20:50:22 10° SW 20:55:50 49° NW 21:01:20 10° NNE
Cosmos 2084 Rocket 3.5 20:53:59 10° NW 20:58:15 76° NE 21:00:52 24° SE
SJ 16-02 2.5 20:54:03 10° SW 20:58:19 46° WNW 21:02:37 10° N
Cosmos 1544 3.4 20:56:08 10° N 20:59:41 50° ENE 21:01:17 28° SE
Cosmos 2369 Rocket 3.4 20:58:46 20° SE 21:00:29 23° E 21:04:49 10° NE
Cosmos 1666 4.1 21:02:52 10° NNW 21:06:15 33° W 21:09:29 11° SSW
JB-3 4.1 21:05:38 10° NNE 21:09:30 81° ESE 21:12:01 21° S
Cosmos 1733 Rocket 3.8 21:06:38 10° N 21:10:40 36° ENE 21:12:25 25° ESE
ARIANE 5 R/B 2.7 21:10:14 21° S 21:13:02 69° WSW 21:17:23 10° NNW
RESURS DK-1 4.2 21:12:03 10° N 21:15:24 23° NE 21:17:43 15° E
Iridium 4 Rocket 4.3 21:12:58 10° SSW 21:18:45 60° W 21:24:35 10° N
BREEZE-M DEB (TANK) 1.0 21:16:47 10° WNW 21:18:46 73° SSW 21:18:58 66° SSE
USA 245 3.9 21:18:30 20° SW 21:19:11 23° W 21:21:12 10° NW
CZ-4B DEB 4.4 21:21:13 43° SE 21:21:58 58° ENE 21:25:09 10° N
Cosmos 990 Rocket 4.2 21:19:06 10° SSW 21:24:20 75° WNW 21:29:38 10° NNE
Cosmos 1898 Rocket 3.5 21:22:00 10° SSW 21:27:19 86° WNW 21:32:42 10° NNE
ATLAS 2AS CENTAUR R/B 3.1 21:23:16 10° NW 21:30:26 58° WSW 21:34:29 25° S
Meteor 1-27 Rocket 4.1 21:24:54 10° SSW 21:30:43 69° WNW 21:36:41 10° N
SL-24 R/B - RUBIN 2 4.4 21:26:34 10° NW 21:31:47 50° WSW 21:34:02 28° S
Cosmos 44 4.0 21:28:12 10° NW 21:33:24 49° WSW 21:35:56 27° S
Cosmos 1818 3.6 21:30:42 10° NW 21:36:11 71° WSW 21:38:46 32° SSE
Cosmos 2154 Rocket 4.4 21:30:11 10° NNW 21:36:23 59° W 21:40:59 18° SSW
Cosmos 1743 2.7 21:33:54 10° NNW 21:37:47 77° W 21:39:06 39° S
Cosmos 962 Rocket 4.4 21:35:08 10° N 21:41:18 88° W 21:44:46 28° S
Nadezhda 1 Rocket 4.4 21:35:38 10° SSW 21:41:50 60° WNW 21:47:59 10° N
Meteor 1-19 Rocket 4.2 21:43:17 33° SSE 21:45:31 57° E 21:50:51 10° NNE
BREEZE-M R/B 2.0 21:45:26 10° WNW 21:47:51 70° NNE 21:48:00 67° NE
H-2A R/B 3.4 21:46:30 10° NNE 21:50:42 85° WNW 21:52:23 35° SSW
Meteor 2-4 Rocket 4.3 21:51:00 32° SE 21:52:44 40° E 21:57:54 10° NNE
Terra 2.1 21:51:09 32° S 21:53:15 61° WSW 21:58:00 10° NNW
Cosmos 1461 3.2 21:50:31 10° SW 21:55:13 79° NW 21:59:52 10° NE
Gbstr 26 Del rocket 4.2 21:48:00 10° WNW 21:55:26 62° SW 21:58:21 33° SSE
Okean 1-7 4.2 21:56:31 26° E 21:56:46 26° E 22:00:22 10° NNE
Cosmos 1340 Rocket 4.1 21:55:01 10° NNW 21:58:43 35° W 22:00:21 25° SW
Cosmos 1862 Rocket 3.4 21:57:49 46° S 21:59:04 81° E 22:03:25 10° N
Cosmos 2297 4.3 21:55:01 10° SW 22:00:37 56° WNW 22:06:13 10° NNE
Okean 1 3.3 22:00:55 45° SSW 22:02:03 77° W 22:06:03 10° N
Cosmos 1125 Rocket 4.4 22:04:18 29° ESE 22:04:48 30° E 22:09:18 10° NE
ATLAS CENTAUR R/B 2.1 22:10:15 33° E 22:10:15 33° E 22:12:47 10° NE
Cosmos 1607 4.0 22:06:38 30° S 22:09:52 61° ESE 22:16:16 10° NE
ERS-1 Rocket 4.3 22:09:26 19° SW 22:12:04 31° W 22:16:32 10° NNW
Cosmos 2082 Rocket 4.4 22:11:05 10° WNW 22:13:55 14° W 22:16:46 10° SW
Cosmos 2366 rocket 3.9 22:10:03 10° N 22:16:17 85° W 22:18:58 37° S
ERBS 4.1 22:15:48 10° WNW 22:17:42 22° WSW 22:17:42 22° WSW
Cosmos 2181 Rocket 4.0 22:16:13 31° SSW 22:19:22 81° W 22:25:32 10° N
Cosmos 1943 Rocket 2.9 22:17:03 10° SW 22:22:32 51° WNW 22:27:59 10° NNE
Cosmos 1867 3.5 22:28:40 31° SSW 22:31:22 87° SE 22:36:53 10° NE
Spot 4 3.9 22:30:35 50° SE 22:31:47 73° ENE 22:36:38 10° N
ISS -2.5 22:28:34 10° W 22:31:48 42° N 22:35:02 10° ENE
Cosmos 1656 Rocket 3.5 22:30:07 44° S 22:31:51 73° ESE 22:37:24 10° NNE
Cosmos 1238 Rocket 4.5 22:30:32 10° NNW 22:35:53 40° W 22:37:53 28° SW
Cosmos 1975 3.4 22:36:54 10° NNW 22:40:43 44° W 22:41:09 43° WSW
Cosmos 1048 Rocket 4.0 22:36:12 10° NNW 22:41:31 77° WSW 22:42:47 52° S
Cosmos 2369 Rocket 2.5 22:40:29 23° SW 22:44:01 62° WNW 22:49:40 10° NNE
Cosmos 2344 4.3 22:38:25 10° NW 22:47:33 82° NE 22:56:38 22° SE
ALOS 2 2.8 22:47:43 53° ESE 22:48:21 60° ENE 22:52:41 10° N
BREEZE-M DEB (TANK) 4.2 22:35:15 10° WNW 22:50:57 71° SSW 22:52:48 43° SE
Okean 3 3.7 22:51:44 52° E 22:51:46 52° E 22:55:53 10° NNE
Lacrosse 5 2.4 22:54:17 40° ESE 22:54:17 40° ESE 22:58:26 10° ENE
RESURS DK-1 2.9 22:49:38 10° NW 22:53:36 46° WSW 22:53:36 46° WSW
SL-27 R/B 3.0 22:50:20 10° NNW 22:53:01 52° NW 22:53:01 52° NW
Cosmos 1356 Rocket 3.4 22:53:05 10° N 22:57:24 75° ENE 22:57:43 70° ESE
NOSS 2-1 (E) 4.4 22:52:51 10° NW 22:57:42 69° NE 23:00:42 32° ESE
Nadezhda 3 Rocket 3.9 22:59:44 46° S 23:01:45 81° E 23:07:58 10° N
Cosmos 1300 Rocket 4.0 22:58:12 10° N 23:02:29 48° ENE 23:02:55 46° E
Cosmos 1908 Rocket 4.5 23:04:18 10° NNW 23:08:26 37° W 23:09:03 35° WSW
Meteor 1-12 Rocket 4.2 23:04:56 10° NNW 23:10:47 81° W 23:12:18 51° S
USA 215 4.0 23:05:42 10° E 23:11:58 51° NNE 23:18:15 10° NW
Cosmos 2298 Rocket 4.4 23:09:55 35° SW 23:11:58 59° WNW 23:17:14 10° NNE
Thor Agena Rocket 4.0 23:09:47 10° NNE 23:14:53 47° E 23:15:40 44° SE
Sich 1 Rocket 3.5 23:11:40 10° N 23:16:14 76° E 23:16:39 69° SE
COSMOS 2455 3.6 23:12:11 10° NNW 23:18:00 47° NE 23:21:46 21° ESE
Cosmos 1805 3.4 23:14:42 10° N 23:18:27 67° ENE 23:18:27 67° ENE
Cosmos 494 Rocket 4.3 23:14:51 10° NNW 23:19:50 48° WSW 23:20:30 45° SW
Cosmos 1726 4.4 23:17:48 10° NNE 23:20:06 16° ENE 23:20:43 15° E
Cosmos 1605 Rocket 4.5 23:15:08 10° N 23:21:17 52° ENE 23:23:40 35° SE
Cosmos 1378 3.5 23:22:00 58° WNW 23:22:00 58° WNW 23:25:28 10° N
Cosmos 1066 Rocket 4.1 23:22:33 53° S 23:23:59 87° E 23:29:37 10° NNE
COBE Rocket 4.0 23:26:12 58° SSW 23:27:06 73° WSW 23:32:19 10° NNW
Okean 2 Rocket 3.0 23:23:25 10° N 23:27:50 69° E 23:28:09 66° ESE
Meteor 1-15 Rocket 4.2 23:22:45 10° N 23:28:31 89° E 23:30:02 52° SSE
Cosmos 2151 Rocket 3.9 23:25:23 10° N 23:29:51 57° ENE 23:30:21 53° ESE
Cosmos 2227 Rocket 3.7 23:28:13 10° NNW 23:33:12 31° NE 23:37:44 12° ESE
Okean 1-7 4.3 23:33:21 28° W 23:34:14 31° WNW 23:38:04 10° N
Cosmos 44 Rocket 3.7 23:29:40 10° NW 23:34:42 49° WSW 23:34:54 48° SW
Cosmos 2297 Rocket 3.3 23:30:14 10° NNW 23:35:33 39° NE 23:39:09 19° ESE
SAR-Lupe-2 4.0 23:32:21 10° N 23:35:36 58° NW 23:35:36 58° NW
PSLV R/B 4.3 23:32:23 10° NNE 23:36:26 39° E 23:36:26 39° E
Cosmos 1766 3.3 23:33:10 10° N 23:36:58 74° NE 23:36:58 74° NE
NOSS 2-1 (C) 4.3 23:39:05 10° NW 23:44:02 59° SW 23:45:14 50° S
Cosmos 1125 Rocket 4.4 23:44:32 28° WSW 23:46:43 41° WNW 23:51:40 10° N
COSMOS 2487 3.5 23:43:50 10° NNW 23:46:11 39° NW 23:46:11 39° NW
ATLAS CENTAUR R/B 3.2 23:46:20 17° W 23:48:13 25° NW 23:51:27 10° NNE
NOSS 2-1 (D) 4.5 23:46:00 10° NW 23:50:55 53° SW 23:51:55 48° SSW
Cosmos 1934 Rocket 4.0 23:45:45 10° NNW 23:51:48 64° W 23:53:27 46° SSW
Cosmos 1378 Rocket 3.9 23:53:20 50° ESE 23:53:31 51° E 23:57:42 10° NNE
